CW1492 Weather Reports


Display with metric or nautical units.
time (UTC)temp
F
wind
direction
speed
MPH
gust
MPH
rain 1hr
in
rain 24hr
in
rain mn
in
humidity
%
barometer
mb
20200707161838 73 128 4.0 0.0 0.00 0.00 0.00 80 1017.4
20200707160339 72 0.0 0.0 0.00 0.00 0.00 80 1017.5
20200707160326 72 132 6.0 11.0 0.00 0.00 0.00 63 1022.0
20200707154850 72 0.0 0.0 0.00 0.00 0.00 80 1017.4
20200707154842 72 131 3.0 11.0 0.00 0.00 0.00 63 1021.9
20200707153353 72 165 2.0 0.0 0.00 0.00 0.00 80 1017.5
20200707153338 71 24 5.0 8.0 0.00 0.00 0.00 65 1022.1
20200707151839 70 31 3.0 8.0 0.00 0.00 0.00 67 1022.2
20200707150401 70 0.0 0.0 0.00 0.00 0.00 80 1017.8
20200707150350 70 100 4.0 10.0 0.00 0.00 0.00 66 1022.3
20200707144912 70 173 4.0 9.0 0.00 0.00 0.00 66 1022.2
20200707144835 70 100 4.0 0.0 0.00 0.00 0.00 80 1017.7
20200707143439 70 0.0 0.0 0.00 0.00 0.00 80 1017.9
20200707143348 69 203 4.0 10.0 0.00 0.00 0.00 67 1022.4
20200707141834 70 0.0 0.0 0.00 0.00 0.00 80 1018.0
20200707140336 70 0.0 0.0 0.00 0.00 0.00 84 1018.0
20200707140326 69 249 2.0 9.0 0.00 0.00 0.00 68 1022.4
20200707134911 69 165 6.0 0.0 0.00 0.00 0.00 84 1018.1
20200707134904 68 332 3.0 9.0 0.00 0.00 0.00 69 1022.6
20200707133359 69 141 5.0 0.0 0.00 0.00 0.00 84 1018.1
20200707133336 68 351 2.0 7.0 0.00 0.00 0.00 70 1022.6
20200707131910 69 134 7.0 0.0 0.00 0.00 0.00 84 1018.2
20200707131824 67 70 1.0 6.0 0.00 0.00 0.00 71 1022.6
20200707130350 68 138 6.0 0.0 0.00 0.00 0.00 82 1018.3
20200707130344 67 41 4.0 8.0 0.00 0.00 0.00 70 1022.8
20200707124845 68 0.0 0.0 0.00 0.00 0.00 83 1018.3
20200707124828 67 162 2.0 7.0 0.00 0.00 0.00 71 1022.8
20200707123358 68 138 6.0 0.0 0.00 0.00 0.00 83 1018.5
20200707123352 67 38 1.0 3.0 0.00 0.00 0.00 71 1022.9
20200707121851 67 139 2.0 9.0 0.00 0.00 0.00 71 1022.9
20200707121846 68 0.0 0.0 0.00 0.00 0.00 83 1018.5
20200707120350 67 0.0 0.0 0.00 0.00 0.00 86 1018.3
20200707120339 67 74 2.0 6.0 0.00 0.00 0.00 71 1022.8
20200707114857 66 52 1.0 6.0 0.00 0.00 0.00 72 1022.9
20200707114834 67 143 4.0 0.0 0.00 0.00 0.00 86 1018.4
20200707113356 66 0.0 0.0 0.00 0.00 0.00 88 1018.4
20200707113336 66 21 0.0 5.0 0.00 0.00 0.00 73 1022.9
20200707111852 65 41 1.0 5.0 0.00 0.00 0.00 75 1022.8
20200707111844 67 145 2.0 0.0 0.00 0.00 0.00 88 1018.4
20200707110412 67 0.0 0.0 0.00 0.00 0.00 88 1018.3
20200707104833 64 15 1.0 6.0 0.00 0.00 0.00 78 1022.9
20200707104831 66 0.0 0.0 0.00 0.00 0.00 88 1018.7
20200707103404 66 120 3.0 0.0 0.00 0.00 0.00 88 1018.7
20200707103327 64 34 1.0 5.0 0.00 0.00 0.00 78 1023.0
20200707101912 64 38 3.0 8.0 0.00 0.00 0.00 78 1022.9
20200707101845 66 0.0 0.0 0.00 0.00 0.00 92 1018.5
20200707100344 66 126 3.0 0.0 0.00 0.00 0.00 92 1018.4
20200707100341 64 49 2.0 8.0 0.00 0.00 0.00 79 1022.8
20200707094854 66 0.0 0.0 0.00 0.00 0.00 92 1018.2
20200707094843 64 60 2.0 6.0 0.00 0.00 0.00 79 1022.6
20200707093354 66 151 3.0 0.0 0.00 0.00 0.00 91 1018.1
20200707093351 64 353 1.0 6.0 0.00 0.00 0.00 79 1022.5
20200707091904 64 30 3.0 5.0 0.00 0.00 0.00 79 1022.3
20200707091858 66 58 0.0 0.0 0.00 0.00 0.00 91 1018.0
20200707090338 66 0.0 0.0 0.00 0.00 0.00 89 1017.6
20200707090332 64 58 1.0 5.0 0.00 0.00 0.00 78 1022.1
20200707084910 65 27 3.0 7.0 0.00 0.00 0.00 78 1021.9
20200707084832 66 48 0.0 0.0 0.00 0.00 0.00 89 1017.6
20200707083402 67 0.0 0.0 0.00 0.00 0.00 89 1017.5
20200707083339 65 21 2.0 4.0 0.00 0.00 0.00 77 1021.9
20200707081858 65 52 3.0 8.0 0.00 0.00 0.00 77 1022.0
20200707081856 67 119 1.0 0.0 0.00 0.00 0.00 89 1017.5
20200707080354 66 24 2.0 7.0 0.00 0.00 0.00 75 1021.8
20200707080338 68 0.0 0.0 0.00 0.00 0.00 88 1017.5
20200707074834 68 0.0 0.0 0.00 0.00 0.00 88 1017.5
20200707074830 66 21 3.0 9.0 0.00 0.00 0.00 74 1021.8
20200707073354 67 358 4.0 9.0 0.00 0.00 0.00 72 1021.9
20200707073341 69 99 3.0 0.0 0.00 0.00 0.00 84 1017.4
20200707071920 69 0.0 0.0 0.00 0.00 0.00 84 1017.4
20200707071837 67 24 2.0 7.0 0.00 0.00 0.00 71 1021.9
20200707070410 68 72 2.0 7.0 0.00 0.00 0.00 69 1021.8
20200707064909 69 64 3.0 8.0 0.00 0.00 0.00 69 1021.7
20200707064901 69 0.0 0.0 0.00 0.00 0.00 84 1017.2
20200707063402 69 25 1.0 6.0 0.00 0.00 0.00 71 1021.7
20200707063335 70 0.0 0.0 0.00 0.00 0.00 88 1017.1
20200707061839 70 161 3.0 0.0 0.00 0.00 0.00 88 1017.3
20200707061827 70 33 1.0 3.0 0.00 0.00 0.00 72 1021.7
20200707060341 70 358 1.0 2.0 0.00 0.00 0.00 71 1021.9
20200707060339 71 106 1.0 0.0 0.00 0.00 0.00 88 1017.5
20200707054920 70 51 1.0 5.0 0.00 0.00 0.00 71 1021.9
20200707054855 71 0.0 0.0 0.00 0.00 0.00 71 1017.4
20200707053336 71 107 3.0 0.0 0.00 0.00 0.00 71 1017.3
20200707053328 70 41 2.0 7.0 0.00 0.00 0.00 70 1021.9
20200707051842 70 114 2.0 8.0 0.00 0.00 0.00 67 1021.8
20200707050407 71 0.0 0.0 0.00 0.00 0.00 71 1017.5
20200707050329 70 22 3.0 7.0 0.00 0.00 0.00 65 1021.9
20200707044855 71 128 4.0 0.0 0.00 0.00 0.00 71 1017.6
20200707044841 70 28 3.0 6.0 0.00 0.00 0.00 62 1022.0
20200707043357 70 30 0.0 2.0 0.00 0.00 0.00 59 1022.3
20200707043338 71 124 2.0 0.0 0.00 0.00 0.00 71 1017.8
20200707041843 70 0.0 0.0 0.00 0.00 0.00 71 1017.6
20200707040405 69 21 1.0 3.0 0.00 0.00 0.00 57 1022.1
20200707040341 70 121 1.0 0.0 0.00 0.00 0.00 71 1017.6
20200707034913 70 10 0.0 0.0 0.00 0.00 0.00 71 1017.6
20200707034837 69 20 2.0 3.0 0.00 0.00 0.00 57 1022.1
20200707033344 71 0.0 0.0 0.00 0.00 0.00 71 1017.4
20200707033331 70 33 1.0 4.0 0.00 0.00 0.00 55 1022.0
20200707031854 71 103 1.0 0.0 0.00 0.00 0.00 71 1017.3
20200707031827 70 22 4.0 9.0 0.00 0.00 0.00 54 1021.8
20200707030350 71 0.0 0.0 0.00 0.00 0.00 68 1017.4
20200707030338 70 68 2.0 4.0 0.00 0.00 0.00 55 1021.9
20200707024846 72 0.0 0.0 0.00 0.00 0.00 68 1017.3
20200707024835 71 19 0.0 0.0 0.00 0.00 0.00 54 1021.8
20200707023400 71 35 0.0 6.0 0.00 0.00 0.00 54 1021.8
20200707023342 72 134 3.0 0.0 0.00 0.00 0.00 72 1017.4
20200707021846 72 126 5.0 0.0 0.00 0.00 0.00 72 1017.4
20200707021834 71 22 3.0 5.0 0.00 0.00 0.00 55 1021.8
20200707020419 72 141 2.0 0.0 0.00 0.00 0.00 71 1017.4
20200707020414 71 35 2.0 9.0 0.00 0.00 0.00 58 1021.9
20200707014903 72 33 3.0 8.0 0.00 0.00 0.00 61 1021.7
20200707014852 73 117 6.0 0.0 0.00 0.00 0.00 71 1017.2
20200707013337 73 124 6.0 0.0 0.00 0.00 0.00 71 1016.9
20200707013335 72 47 4.0 9.0 0.00 0.00 0.00 61 1021.4
20200707011851 72 47 1.0 4.0 0.00 0.00 0.00 60 1021.3
20200707011833 74 99 2.0 0.0 0.00 0.00 0.00 71 1016.6
20200707010352 74 0.0 0.0 0.00 0.00 0.00 71 1016.6
20200707010329 73 78 0.0 0.0 0.00 0.00 0.00 59 1021.1
20200707004844 75 0.0 0.0 0.00 0.00 0.00 71 1016.3
20200707004828 73 56 0.0 6.0 0.00 0.00 0.00 57 1020.8
20200707003356 75 151 6.0 0.0 0.00 0.00 0.00 71 1016.0
20200707003351 74 32 2.0 5.0 0.00 0.00 0.00 55 1020.6
20200707001901 75 127 7.0 0.0 0.00 0.00 0.00 69 1015.9
20200707001845 75 17 0.0 4.0 0.00 0.00 0.00 54 1020.4
20200707000408 76 154 7.0 0.0 0.00 0.00 0.00 69 1015.9
20200707000359 77 19 4.0 7.0 0.00 0.00 0.00 51 1020.2
20200706234848 77 0.0 0.0 0.00 0.00 0.00 69 1015.6
20200706234836 78 84 3.0 8.0 0.00 0.00 0.00 50 1020.2
20200706233350 78 127 10.0 0.0 0.00 0.00 0.00 69 1015.4
20200706233333 80 83 4.0 11.0 0.00 0.00 0.00 46 1020.0
20200706231915 79 145 10.0 0.0 0.00 0.00 0.00 55 1015.6
20200706231848 85 21 2.0 3.0 0.00 0.00 0.00 35 1020.1
20200706230359 81 103 1.0 0.0 0.00 0.00 0.00 55 1015.5
20200706230334 85 21 1.0 3.0 0.00 0.00 0.00 33 1020.0
20200706224850 81 133 3.0 0.0 0.00 0.00 0.00 35 1015.3
20200706224832 85 19 2.0 4.0 0.00 0.00 0.00 31 1019.8
20200706223338 81 0.0 0.0 0.00 0.00 0.00 35 1015.4
20200706223329 85 74 1.0 4.0 0.00 0.00 0.00 28 1019.8
20200706221853 81 133 1.0 0.0 0.00 0.00 0.00 35 1015.1
20200706221844 86 76 1.0 3.0 0.00 0.00 0.00 24 1019.7
20200706220416 86 157 2.0 3.0 0.00 0.00 0.00 23 1019.6
20200706220401 82 134 1.0 0.0 0.00 0.00 0.00 35 1015.0
20200706214851 83 78 0.0 0.0 0.00 0.00 0.00 35 1015.0
20200706213412 85 143 2.0 5.0 0.00 0.00 0.00 27 1019.5
20200706213347 84 0.0 0.0 0.00 0.00 0.00 37 1015.0
20200706211847 84 0.0 0.0 0.00 0.00 0.00 36 1014.9
20200706211830 85 127 2.0 5.0 0.00 0.00 0.00 24 1019.4
20200706210413 84 61 1.0 0.0 0.00 0.00 0.00 36 1014.8
20200706210338 86 80 2.0 3.0 0.00 0.00 0.00 26 1019.3
20200706204851 85 340 3.0 6.0 0.00 0.00 0.00 22 1019.3
20200706204841 84 0.0 0.0 0.00 0.00 0.00 1014.7
20200706203411 85 267 2.0 5.0 0.00 0.00 0.00 21 1019.3
20200706203337 0 0.0 0.0 0.00 0.00 0.00 1014.7
20200706201844 85 203 2.0 6.0 0.00 0.00 0.00 25 1019.4
20200706200337 85 185 2.0 9.0 0.00 0.00 0.00 29 1019.5
20200706200330 83 83 2.0 0.0 0.00 0.00 0.00 39 1014.8
20200706194848 85 294 1.0 5.0 0.00 0.00 0.00 25 1019.4
20200706193346 84 0.0 0.0 0.00 0.00 0.00 43 1015.0
20200706193343 84 224 3.0 6.0 0.00 0.00 0.00 25 1019.6
20200706191831 83 0.0 0.0 0.00 0.00 0.00 43 1015.0
20200706191828 84 2 2.0 9.0 0.00 0.00 0.00 22 1019.7
20200706190343 81 0.0 0.0 0.00 0.00 0.00 43 1015.1
20200706190341 83 333 5.0 10.0 0.00 0.00 0.00 23 1019.8
20200706184904 82 298 1.0 0.0 0.00 0.00 0.00 46 1015.4
20200706184843 83 159 2.0 8.0 0.00 0.00 0.00 26 1019.9
20200706183423 81 71 2.0 0.0 0.00 0.00 0.00 46 1015.5
20200706183417 83 270 4.0 9.0 0.00 0.00 0.00 22 1020.1
20200706181844 81 83 2.0 0.0 0.00 0.00 0.00 46 1015.6
20200706181831 82 324 3.0 12.0 0.00 0.00 0.00 23 1020.1
20200706180342 82 301 2.0 8.0 0.00 0.00 0.00 26 1020.3
20200706180334 81 71 2.0 0.0 0.00 0.00 0.00 42 1015.6
20200706174839 84 0.0 0.0 0.00 0.00 0.00 42 1015.7
20200706174836 81 159 3.0 7.0 0.00 0.00 0.00 31 1020.5
20200706173340 86 65 2.0 0.0 0.00 0.00 0.00 42 1015.7
20200706173332 81 192 3.0 7.0 0.00 0.00 0.00 33 1020.5
20200706171832 85 267 3.0 0.0 0.00 0.00 0.00 42 1015.7
20200706171825 80 199 2.0 9.0 0.00 0.00 0.00 36 1020.5
20200706170421 84 0.0 0.0 0.00 0.00 0.00 42 1015.6
20200706170338 81 13 4.0 10.0 0.00 0.00 0.00 34 1020.4
20200706164930 83 0.0 0.0 0.00 0.00 0.00 48 1015.9
20200706164831 80 147 1.0 6.0 0.00 0.00 0.00 33 1020.5
20200706163400 79 273 3.0 9.0 0.00 0.00 0.00 30 1020.5
20200706163347 82 0.0 0.0 0.00 0.00 0.00 48 1015.7